TimeCST,TemperatureF,Dew PointF,Humidity,Sea Level PressureIn,VisibilityMPH,Wind Direction,Wind SpeedMPH,Gust SpeedMPH,PrecipitationIn,Events,Conditions,WindDirDegrees,DateUTC
12:53 AM,26.1,19.0,75,30.31,10.0,NW,9.2,-,N/A,,Clear,310,2012-11-28 06:53:00
1:53 AM,24.1,19.0,81,30.32,9.0,NNW,9.2,-,N/A,,Clear,330,2012-11-28 07:53:00
2:53 AM,21.9,18.0,85,30.35,9.0,NNW,6.9,-,N/A,,Clear,340,2012-11-28 08:53:00
3:53 AM,19.9,17.1,89,30.37,9.0,WNW,3.5,-,N/A,,Clear,290,2012-11-28 09:53:00
4:53 AM,19.9,17.1,89,30.37,9.0,NNW,4.6,-,N/A,,Clear,340,2012-11-28 10:53:00
5:53 AM,18.0,15.1,88,30.39,8.0,Calm,Calm,-,N/A,,Clear,0,2012-11-28 11:53:00
6:53 AM,14.0,12.0,92,30.40,6.0,Calm,Calm,-,N/A,,Clear,0,2012-11-28 12:53:00
7:53 AM,17.1,14.0,88,30.42,4.0,West,3.5,-,N/A,,Clear,260,2012-11-28 13:53:00
8:53 AM,25.0,21.0,85,30.43,7.0,Calm,Calm,-,N/A,,Clear,0,2012-11-28 14:53:00
9:53 AM,30.0,24.1,79,30.45,6.0,Calm,Calm,-,N/A,,Haze,0,2012-11-28 15:53:00
10:53 AM,34.0,24.1,67,30.43,9.0,Calm,Calm,-,N/A,,Clear,0,2012-11-28 16:53:00
11:53 AM,37.9,25.0,60,30.38,10.0,Calm,Calm,-,N/A,,Clear,0,2012-11-28 17:53:00
12:53 PM,42.1,25.0,51,30.35,10.0,South,8.1,-,N/A,,Clear,180,2012-11-28 18:53:00
1:53 PM,44.1,24.1,45,30.31,10.0,South,8.1,-,N/A,,Clear,170,2012-11-28 19:53:00
2:53 PM,44.1,21.9,42,30.28,10.0,South,10.4,-,N/A,,Clear,190,2012-11-28 20:53:00
3:53 PM,43.0,24.1,47,30.27,10.0,South,9.2,-,N/A,,Clear,180,2012-11-28 21:53:00
4:53 PM,35.1,21.9,59,30.24,7.0,SSE,4.6,-,N/A,,Clear,150,2012-11-28 22:53:00
5:53 PM,30.9,19.9,64,30.24,10.0,SSE,6.9,-,N/A,,Clear,160,2012-11-28 23:53:00
6:53 PM,33.1,21.9,64,30.23,10.0,SE,5.8,-,N/A,,Clear,140,2012-11-29 00:53:00
7:53 PM,30.9,21.9,69,30.22,10.0,South,6.9,-,N/A,,Clear,180,2012-11-29 01:53:00
8:53 PM,33.1,23.0,66,30.18,10.0,SSE,6.9,-,N/A,,Clear,160,2012-11-29 02:53:00
9:53 PM,30.9,23.0,72,30.18,10.0,SSE,4.6,-,N/A,,Clear,150,2012-11-29 03:53:00
10:53 PM,28.0,21.9,78,30.17,10.0,Calm,Calm,-,N/A,,Clear,0,2012-11-29 04:53:00
11:53 PM,28.9,23.0,78,30.16,10.0,South,6.9,-,N/A,,Clear,170,2012-11-29 05:53:00